Weather History for KAMN - November, 2011

Change the Weather History Date:

Friday, November 25, 2011

  Actual Average Record
Temperature  
Mean Temperature 44 °F -  
Max Temperature 55 °F 39 °F 57 °F (2001)
Min Temperature 33 °F 25 °F 0 °F (1950)
Degree Days  
Heating Degree Days 21    
Moisture  
Dew Point 38 °F    
Average Humidity 77    
Maximum Humidity 100    
Minimum Humidity 51    
Precipitation  
Precipitation 0.00 in - - ()
Sea Level Pressure  
Sea Level Pressure 29.95 in    
Wind  
Wind Speed 8 mph (SSW)    
Max Wind Speed 16 mph    
Max Gust Speed 25 mph    
Visibility 8 miles    
Events      
Averages and records for this station are not official NWS values.
T = Trace of Precipitation, MM = Missing Value Source: NWS Daily Summary

Daily Weather History Graph

Daily Weather History Graph

Search for Another Location

Airport or City:

Trip Planner

Search our weather history database for the weather conditions in past years. The results will help you decide how hot, cold, wet, or windy it might be!

Date:

Astronomy

Nov. 25, 2011 Rise Set
Actual Time 7:44 AM EST 5:06 PM EST
Civil Twilight 7:12 AM EST 5:38 PM EST
Nautical Twilight 6:37 AM EST 6:13 PM EST
Astronomical Twilight 6:03 AM EST 6:47 PM EST
Moon 8:12 AM EST (11/25) 5:31 PM EST (11/25)
Length of Visible Light 10h 25m
Length of Day
9h 22m
New Moon, 0% of the Moon is Illuminated
Nov 25
New Moon
Dec 2
First Quarter
Dec 10
Full
Dec 17
Last Quarter
Dec 24
New

Hourly Weather History & Observations

Time (EST) Temp. Windchill Dew Point Humidity Pressure Visibility Wind Dir Wind Speed Gust Speed Precip Events Conditions
12:09 AM 37.4 °F 32.8 °F 37.4 °F 100% 30.04 in 4.0 mi SSW 5.8 mph - N/A   Clear
12:49 AM 35.6 °F 29.9 °F 35.6 °F 100% 30.03 in 3.0 mi SSW 6.9 mph - N/A   Clear
1:09 AM 35.6 °F 29.9 °F 35.6 °F 100% 30.03 in 3.0 mi SSW 6.9 mph - N/A   Clear
1:50 AM 35.6 °F 29.9 °F 35.6 °F 100% 30.02 in 3.0 mi SSW 6.9 mph - N/A   Clear
2:10 AM 35.6 °F 29.9 °F 35.6 °F 100% 30.01 in 4.0 mi South 6.9 mph - N/A   Clear
2:30 AM 35.6 °F 31.7 °F 35.6 °F 100% 30.02 in 4.0 mi SSW 4.6 mph - N/A   Clear
2:50 AM 35.6 °F 31.7 °F 35.6 °F 100% 30.02 in 4.0 mi SSW 4.6 mph - N/A   Clear
3:10 AM 33.8 °F 29.6 °F 33.8 °F 100% 30.01 in 4.0 mi South 4.6 mph - N/A   Clear
3:30 AM 33.8 °F 29.6 °F 33.8 °F 100% 30.01 in 4.0 mi SSW 4.6 mph - N/A   Clear
3:50 AM 33.8 °F 29.6 °F 33.8 °F 100% 30.01 in 5.0 mi SSW 4.6 mph - N/A   Clear
4:10 AM 35.6 °F 29.2 °F 35.6 °F 100% 29.99 in 5.0 mi SSW 8.1 mph - N/A   Clear
4:31 AM 35.6 °F 29.2 °F 35.6 °F 100% 29.99 in 5.0 mi SSW 8.1 mph - N/A   Clear
5:31 AM 37.4 °F 31.4 °F 35.6 °F 93% 29.98 in 7.0 mi SSW 8.1 mph - N/A   Clear
5:51 AM 37.4 °F 31.4 °F 35.6 °F 93% 29.98 in 7.0 mi SW 8.1 mph - N/A   Clear
6:11 AM 37.4 °F 31.4 °F 35.6 °F 93% 29.98 in 7.0 mi SW 8.1 mph - N/A   Clear
6:31 AM 37.4 °F 31.4 °F 35.6 °F 93% 29.98 in 7.0 mi SSW 8.1 mph - N/A   Clear
6:51 AM 37.4 °F 30.8 °F 35.6 °F 93% 29.98 in 7.0 mi SSW 9.2 mph - N/A   Clear
7:11 AM 37.4 °F 30.3 °F 35.6 °F 93% 29.98 in 7.0 mi SSW 10.4 mph 17.3 mph N/A   Clear
7:32 AM 37.4 °F 30.8 °F 35.6 °F 93% 29.97 in 7.0 mi SSW 9.2 mph - N/A   Clear
7:47 AM 37.4 °F 30.8 °F 35.6 °F 93% 29.97 in 7.0 mi SSW 9.2 mph - N/A   Clear
8:07 AM 37.4 °F 30.8 °F 35.6 °F 93% 29.97 in 7.0 mi SSW 9.2 mph - N/A   Clear
8:47 AM 41.0 °F 34.3 °F 35.6 °F 81% 29.97 in 10.0 mi SSW 11.5 mph - N/A   Clear
9:07 AM 42.8 °F 37.5 °F 37.4 °F 81% 29.96 in 10.0 mi SSW 9.2 mph 16.1 mph N/A   Clear
9:27 AM 42.8 °F 36.2 °F 37.4 °F 81% 29.95 in 7.0 mi SSW 12.7 mph 18.4 mph N/A   Clear
9:47 AM 44.6 °F 38.4 °F 37.4 °F 76% 29.95 in 10.0 mi SSW 12.7 mph 20.7 mph N/A   Clear
10:07 AM 46.4 °F 40.7 °F 37.4 °F 71% 29.95 in 10.0 mi SSW 12.7 mph 23.0 mph N/A   Clear
10:28 AM 46.4 °F 40.1 °F 37.4 °F 71% 29.96 in 10.0 mi SW 15.0 mph 20.7 mph N/A   Clear
10:48 AM 48.2 °F - 37.4 °F 66% 29.96 in 10.0 mi SSW 13.8 mph 21.9 mph N/A   Clear
11:08 AM 50.0 °F - 37.4 °F 62% 29.95 in 10.0 mi SW 15.0 mph 24.2 mph N/A   Clear
11:48 AM 51.8 °F - 39.2 °F 62% 29.92 in 10.0 mi SSW 12.7 mph - N/A   Clear
12:08 PM 53.6 °F - 37.4 °F 54% 29.91 in 10.0 mi SW 11.5 mph 18.4 mph N/A   Clear
12:28 PM 53.6 °F - 37.4 °F 54% 29.91 in 10.0 mi SSW 13.8 mph 19.6 mph N/A   Clear
12:48 PM 53.6 °F - 39.2 °F 58% 29.90 in 10.0 mi SSW 15.0 mph 23.0 mph N/A   Clear
1:29 PM 55.4 °F - 37.4 °F 51% 29.90 in 10.0 mi SSW 15.0 mph 23.0 mph N/A   Clear
1:50 PM 55.4 °F - 37.4 °F 51% 29.89 in 10.0 mi SW 12.7 mph 21.9 mph N/A   Clear
2:30 PM 55.4 °F - 37.4 °F 51% 29.89 in 10.0 mi SSW 12.7 mph 17.3 mph N/A   Clear
2:50 PM 55.4 °F - 37.4 °F 51% 29.88 in 10.0 mi SW 16.1 mph 25.3 mph N/A   Clear
3:10 PM 55.4 °F - 37.4 °F 51% 29.88 in 10.0 mi SW 13.8 mph 20.7 mph N/A   Clear
3:30 PM 55.4 °F - 37.4 °F 51% 29.88 in 10.0 mi SW 12.7 mph 18.4 mph N/A   Clear
3:50 PM 55.4 °F - 37.4 °F 51% 29.88 in 10.0 mi SW 9.2 mph 17.3 mph N/A   Clear
4:10 PM 55.4 °F - 37.4 °F 51% 29.88 in 10.0 mi SSW 10.4 mph - N/A   Clear
4:30 PM 53.6 °F - 37.4 °F 54% 29.89 in 10.0 mi SSW 10.4 mph - N/A   Clear
4:50 PM 51.8 °F - 39.2 °F 62% 29.89 in 10.0 mi SSW 10.4 mph - N/A   Clear
5:11 PM 51.8 °F - 39.2 °F 62% 29.89 in 10.0 mi SSW 8.1 mph - N/A   Clear
5:31 PM 51.8 °F - 39.2 °F 62% 29.89 in 10.0 mi SSW 8.1 mph - N/A   Clear
5:51 PM 51.8 °F - 39.2 °F 62% 29.89 in 10.0 mi SSW 11.5 mph - N/A   Clear
6:11 PM 51.8 °F - 39.2 °F 62% 29.89 in 10.0 mi South 10.4 mph - N/A   Clear
6:51 PM 50.0 °F - 41.0 °F 71% 29.91 in 10.0 mi SSW 9.2 mph - N/A   Clear
7:11 PM 50.0 °F - 41.0 °F 71% 29.92 in 10.0 mi SSW 5.8 mph - N/A   Clear
7:31 PM 50.0 °F - 41.0 °F 71% 29.92 in 10.0 mi SSW 6.9 mph - N/A   Clear
7:51 PM 48.2 °F - 41.0 °F 76% 29.91 in 10.0 mi SSW 5.8 mph - N/A   Clear
8:27 PM 48.2 °F - 41.0 °F 76% 29.92 in 10.0 mi South 6.9 mph - N/A   Clear
9:07 PM 46.4 °F 43.5 °F 41.0 °F 81% 29.93 in 10.0 mi SSW 5.8 mph - N/A   Clear
9:27 PM 46.4 °F 43.5 °F 41.0 °F 81% 29.94 in 10.0 mi SSW 5.8 mph - N/A   Clear
9:47 PM 46.4 °F 42.9 °F 41.0 °F 81% 29.94 in 10.0 mi SSW 6.9 mph - N/A   Clear
10:07 PM 46.4 °F 43.5 °F 41.0 °F 81% 29.94 in 10.0 mi South 5.8 mph - N/A   Clear
10:27 PM 46.4 °F 42.9 °F 42.8 °F 87% 29.94 in 10.0 mi South 6.9 mph - N/A   Clear
11:08 PM 48.2 °F - 41.0 °F 76% 29.94 in 10.0 mi SSW 8.1 mph - N/A   Clear
11:28 PM 48.2 °F - 42.8 °F 82% 29.95 in 10.0 mi SSW 6.9 mph - N/A   Clear
11:48 PM 48.2 °F - 42.8 °F 82% 29.96 in 10.0 mi SSW 5.8 mph - N/A   Scattered Clouds